Flag for Iran Weather past 2 weeks in Bandar-Abbas, Iran

Now
72 °F

Clear.


Feels Like: 72 °F
Forecast: 54 / 74 °F
Wind: 14 mph from West

Location: Bandarabbass

Current Time: Dec 22, 2014 at 9:27:39 PM

Latest Report: Dec 22, 2014 at 9:00 PM


Visibility: 3 mi

Pressure: 29.89 "Hg

Humidity: 78%

Dew point: 64 °F

Location of Bandar-AbbasLocation

Historic Weather in Bandar-Abbas — Graph

°F

Bandar-Abbas temperature yesterday

Maximum temperature yesterday: 77 °F (at 2:00 PM)
Minimum temperature yesterday: 54 °F (at 4:30 AM)
Average temperature yesterday: 67 °F

Past Weeks' High & Low Weather Summary

 TemperatureHumidityPressure
High84 °F (Dec 8, 1:00 PM)94% (Dec 17, 6:30 AM)30.18 "Hg (Dec 17, 6:30 AM)
Low48 °F (Dec 11, 6:30 AM)11% (Dec 14, 12:30 AM)29.83 "Hg (Dec 22, 2:55 PM)
Average68 °F50%30.06 "Hg
* Reported Dec 7 7:30 PM — Dec 22 8:00 PM, Bandar-Abbas, Weather by CustomWeather, © 2014

Note: Actual official high and low records may vary slightly from our data, if they occured in-between our weather recording intervals... More about our weather records

Advertising

Bandar-Abbas weather history for previous 24 hours

 ConditionsComfort  
Time TempWeatherWind HumidityBarometerVisibility
8:00 PM
Dec 22
72 °FClear.9 mph73%29.86 "Hg3 mi
7:30 PM72 °FClear.12 mph78%29.86 "Hg3 mi
7:00 PM72 °FClear.12 mph78%29.86 "Hg3 mi
6:30 PM73 °FClear.12 mph74%29.86 "Hg3 mi
6:00 PM73 °FClear.9 mph69%29.86 "Hg3 mi
5:30 PM73 °FClear.14 mph69%29.86 "Hg3 mi
5:00 PM75 °FSunny.14 mph61%29.86 "Hg3 mi
4:30 PM75 °FSunny.12 mph50%29.86 "Hg3 mi
4:00 PM77 °FSunny.14 mph51%29.83 "Hg3 mi
3:30 PM77 °FSandstorm.16 mph51%29.83 "Hg2 mi
2:55 PM77 °FSandstorm.16 mph51%29.83 "Hg2 mi
2:30 PM77 °FSandstorm.16 mph47%29.86 "Hg2 mi
2:00 PM75 °FSandstorm.18 mph61%29.86 "Hg2 mi
1:20 PM75 °FSandstorm.18 mph61%29.86 "Hg3 mi
1:00 PM75 °FClear.14 mph61%29.89 "Hg4 mi
12:30 PM75 °FClear.14 mph61%29.89 "Hg4 mi
12:00 PM75 °FHaze.12 mph57%29.92 "Hg4 mi
11:30 AM75 °FHaze.12 mph57%29.92 "Hg4 mi
10:30 AM73 °FHaze.5 mph61%29.95 "Hg3 mi
10:00 AM70 °FScattered clouds.5 mph69%29.95 "Hg3 mi
9:30 AM70 °FScattered clouds.5 mph69%29.95 "Hg3 mi
8:30 AM64 °FScattered clouds.5 mph78%29.95 "Hg2 mi
8:00 AM61 °FFog.7 mph83%29.92 "Hg2 mi
7:00 AM59 °FFog.5 mph82%29.92 "Hg2 mi
6:30 AM59 °FFog.5 mph82%29.92 "Hg2 mi
6:00 AM59 °FFog.7 mph82%29.92 "Hg2 mi
5:30 AM61 °FFog.5 mph83%29.89 "Hg2 mi
4:30 AM59 °FFog.5 mph88%29.89 "Hg2 mi
3:30 AM59 °FFog.5 mph82%29.92 "Hg2 mi
2:30 AM61 °FFog.7 mph83%29.92 "Hg3 mi
1:30 AM63 °FClear.7 mph77%29.92 "Hg3 mi
1:00 AM66 °FClear.5 mph73%29.92 "Hg4 mi
12:00 AM68 °FClear.5 mph73%29.92 "Hg4 mi
11:30 PM
Dec 21
68 °FClear.9 mph73%29.92 "Hg4 mi
11:00 PM68 °FClear.9 mph73%29.92 "Hg4 mi
10:30 PM66 °FClear.5 mph78%29.92 "Hg4 mi
10:00 PM68 °FClear.7 mph69%29.92 "Hg4 mi
9:30 PM68 °FClear.7 mph64%29.95 "Hg4 mi
9:00 PM70 °FClear.12 mph69%29.95 "Hg4 mi
Weather by CustomWeather, © 2014

See weather overviewHow to use our weather pages